#timestamp,LO_Frequency,Hit,StdDev 
1699653615.6,286047000.3,P
1699653635.5,286047002.6,P
1699653655.3,286047002.1,N
1699653675.2,286047001.9,N
1699653695.9,286047002.7,Y
1699653715.7,286047001.0,P
1699653735.6,286047001.2,P
1699653755.4,286046998.9,P
1699653775.3,286046996.7,Y
1699653795.1,286046997.2,P
1699653796.0,286046997.2,N
1699653815.8,286046997.4,N
1699653835.7,286046997.8,N
1699653855.5,286046996.6,N
1699653875.3,286046996.9,N
1699653895.2,286046996.7,N
1699653915.0,286046999.4,N
1699653915.9,286046999.4,N
1699653935.8,286046999.1,N
1699653955.6,286046996.9,N
1699653975.4,286046999.3,N
1699653995.3,286046998.3,N
1699654015.1,286046998.6,N
1699654035.9,286046998.1,N
1699654055.7,286046998.3,N
1699654075.5,286046998.2,N
1699654095.4,286046998.4,N
1699654115.2,286046998.7,N
1699654135.0,286046998.1,N
1699654135.9,286046998.1,N
1699654155.8,286047000.5,N
1699654175.6,286047000.7,N
1699654195.5,286046998.2,N
1699654215.3,286047000.4,N
1699654235.1,286046998.1,N
1699654255.9,286047000.8,N
1699654275.7,286047000.8,N
1699654295.6,286046998.1,N
1699654315.4,286047000.4,N
1699654335.2,286046998.4,N
1699654355.1,286046998.3,N
1699654356.0,286046998.3,N
1699654375.8,286046998.3,N
1699654395.7,286046999.0,N
1699654415.5,286046999.3,N
1699654435.3,286046998.7,N
1699654455.2,286046999.2,N
1699654475.0,286046997.0,Y
1699654475.9,286046997.0,P
1699654495.7,286046998.2,N
1699654515.6,286046998.2,N
1699654535.4,286047000.7,N
1699654555.3,286047000.2,N
1699654575.1,286047000.6,N
1699654595.8,286046998.1,N
1699654615.7,286046999.3,N
1699654635.5,286046996.5,N
1699654655.4,286046998.8,N
1699654675.2,286046998.9,N
1699654695.0,286046998.6,N
1699654695.9,286046998.6,N
1699654715.8,286046998.1,N
1699654735.6,286046998.5,N
1699654755.5,286046999.9,N
1699654775.3,286047002.3,N
1699654795.1,286047001.5,N
1699654815.9,286047002.0,N
1699654835.7,286047001.6,N
1699654855.5,286047004.4,N
1699654875.4,286047001.9,N
1699654895.2,286047004.3,N
1699654915.0,286047001.5,N
1699654915.9,286047001.5,N
1699654935.8,286047002.8,N
1699654955.6,286047001.7,N
1699654975.5,286047002.3,N
1699654995.3,286047001.5,N
1699655015.1,286046999.7,N
1699655035.9,286047002.6,N
1699655055.7,286047002.0,N
1699655075.5,286047002.2,N
1699655095.4,286047001.7,N
1699655115.2,286047004.0,N
1699655135.1,286047000.2,N
1699655136.0,286047000.2,N
1699655155.8,286046999.9,N
1699655175.7,286047000.9,N
1699655195.5,286046999.9,N
1699655215.4,286047002.7,N
1699655235.2,286047000.3,N
1699655255.0,286046999.9,N
1699655255.9,286046999.9,N
1699655275.8,286047002.4,N
1699655295.6,286047000.0,N
1699655315.4,286047002.8,N
1699655335.3,286047001.5,N
1699655355.1,286047001.4,N
1699655375.9,286047001.6,N
1699655395.7,286047000.1,N
1699655415.5,286047002.7,N
1699655435.4,286047002.7,N
1699655455.2,286046999.7,N
1699655475.0,286047001.9,N
1699655475.9,286047001.9,N
1699655495.8,286047002.3,N
1699655515.6,286046999.8,N
1699655535.5,286046999.8,N
1699655555.3,286047000.2,N
1699655575.1,286046999.8,N
1699655595.9,286047000.7,N
1699655615.7,286047000.8,N
1699655635.6,286046998.1,N
1699655655.4,286046998.6,N
1699655675.2,286046998.8,N
1699655695.1,286046998.5,N
1699655715.8,286046998.9,N
1699655735.7,286047000.0,N
1699655755.5,286047000.7,N
1699655775.4,286047000.4,N
1699655795.2,286047001.2,N
1699655815.0,286046998.2,N
1699655815.9,286046998.2,N
1699655835.8,286047002.6,N
1699655855.6,286047001.6,N
1699655875.5,286047002.1,N
1699655895.3,286047002.3,N
1699655915.1,286047002.2,N
1699655935.9,286047002.7,N
1699655955.7,286047002.7,N
1699655975.6,286047001.9,N
1699655995.4,286047002.5,N
1699656015.2,286047000.9,N
1699656035.1,286047002.7,N
1699656036.0,286047002.7,N
1699656055.8,286047002.3,N
1699656075.6,286047000.1,N
1699656095.5,286047000.4,N
1699656115.3,286047000.3,N
1699656135.2,286047002.1,N
1699656155.9,286047001.9,N
1699656175.8,286047002.1,N
1699656195.6,286047002.1,N
1699656215.4,286047001.9,N
1699656235.3,286047004.4,Y
1699656255.1,286047002.4,P
1699656275.8,286047002.8,P
1699656295.7,286047002.7,P
1699656315.5,286047001.7,N
1699656335.4,286047004.0,Y
1699656355.2,286047001.2,P
1699656375.1,286047001.0,N
1699656376.0,286047001.0,N
1699656395.8,286046998.4,Y
1699656415.6,286046996.5,P
1699656435.5,286046999.1,N
1699656455.3,286046997.1,N
1699656475.2,286046999.5,N
1699656495.0,286046996.9,N
1699656495.9,286046996.9,N
1699656515.7,286046996.5,N
1699656535.6,286046997.4,N
1699656555.4,286046997.5,N
1699656575.3,286046997.3,N
1699656595.1,286046997.1,N
1699656596.0,286046997.1,N
1699656615.8,286046997.9,N
1699656635.7,286046996.7,N
1699656655.5,286046996.7,N
1699656675.3,286046996.5,N
1699656695.2,286046996.5,N
1699656715.0,286046999.1,N
1699656715.9,286046999.1,N
1699656735.8,286046996.9,N
1699656755.6,286046997.5,N
1699656775.4,286046997.6,N
1699656795.3,286046997.3,N
1699656815.1,286046996.6,N
1699656835.9,286046996.7,N
1699656855.7,286046995.5,Y
1699656875.5,286046997.1,P
1699656895.4,286046999.3,P
1699656915.2,286046998.2,N
1699656935.0,286047000.2,N
1699656935.9,286047000.2,N
1699656955.8,286047000.0,N
1699656975.6,286046999.7,N
1699656995.5,286047002.4,N
1699657015.3,286047000.2,N
1699657035.1,286047002.8,N
1699657055.9,286047001.0,N
1699657075.7,286046998.6,N
1699657095.5,286047000.7,N
1699657115.8,286046998.1,N
1699657135.6,286047000.1,N
1699657155.5,286046998.1,N
1699657175.3,286046998.2,N
1699657195.1,286047000.9,N
